Washington, IA

11:48 PM CST on December 17, 2017 (GMT -0600)
Washington Municipal

Weather History for KAWG - October, 2012

Change the Weather History Date:

Thursday, October 25, 2012

  Actual Average Record
Temperature  
Mean Temperature 54 °F -  
Max Temperature 71 °F 58 °F 80 °F (2000)
Min Temperature 37 °F 40 °F 24 °F (2013)
Degree Days  
Heating Degree Days 11    
Growing Degree Days 4 (Base 50)    
Moisture  
Dew Point 47 °F    
Average Humidity 76    
Maximum Humidity 93    
Minimum Humidity 65    
Precipitation  
Precipitation 0.13 in - - ()
Sea Level Pressure  
Sea Level Pressure 29.86 in    
Wind  
Wind Speed 19 mph (West)    
Max Wind Speed 29 mph    
Max Gust Speed 33 mph    
Visibility 9 miles    
Events Rain    
Averages and records for this station are not official NWS values.
T = Trace of Precipitation, MM = Missing Value Source: NWS Daily Summary

Daily Weather History Graph

Daily Weather History Graph

Search for Another Location

Airport or City:

Trip Planner

Search our weather history database for the weather conditions in past years. The results will help you decide how hot, cold, wet, or windy it might be!

Date:

Astronomy

Oct. 25, 2012 Rise Set
Actual Time 7:30 AM CDT 6:10 PM CDT
Civil Twilight 7:02 AM CDT 6:38 PM CDT
Nautical Twilight 6:29 AM CDT 7:10 PM CDT
Astronomical Twilight 5:57 AM CDT 7:42 PM CDT
Moon 3:58 PM CDT (10/25) 3:24 AM CDT (10/25)
Length of Visible Light 11h 36m
Length of Day
10h 40m
Waxing Gibbous, 84% of the Moon is Illuminated
Oct 25
Waxing Gibbous
Oct 29
Full
Nov 6
Last Quarter
Nov 13
New
Nov 20
First Quarter

Hourly Weather History & Observations

Time (CDT) Temp. Windchill Dew Point Humidity Pressure Visibility Wind Dir Wind Speed Gust Speed Precip Events Conditions
12:15 AM 71.6 °F - 60.8 °F 69% 29.72 in 10.0 mi South 17.3 mph - N/A   Clear
12:35 AM 71.6 °F - 60.8 °F 69% 29.71 in 10.0 mi South 15.0 mph 23.0 mph N/A   Clear
12:55 AM 71.6 °F - 60.8 °F 69% 29.71 in 10.0 mi South 15.0 mph 21.9 mph N/A   Clear
1:15 AM 71.6 °F - 60.8 °F 69% 29.71 in 10.0 mi South 17.3 mph 25.3 mph N/A   Clear
1:35 AM 69.8 °F - 60.8 °F 73% 29.70 in 10.0 mi South 20.7 mph 24.2 mph N/A   Clear
1:55 AM 69.8 °F - 60.8 °F 73% 29.69 in 10.0 mi South 19.6 mph 23.0 mph N/A   Clear
2:35 AM 69.8 °F - 60.8 °F 73% 29.69 in 10.0 mi South 21.9 mph - N/A   Mostly Cloudy
2:55 AM 71.6 °F - 60.8 °F 69% 29.71 in 10.0 mi SSW 17.3 mph - N/A   Overcast
3:15 AM 71.6 °F - 60.8 °F 69% 29.70 in 10.0 mi SSW 17.3 mph 27.6 mph N/A   Mostly Cloudy
3:35 AM 69.8 °F - 60.8 °F 73% 29.68 in 10.0 mi South 20.7 mph 25.3 mph N/A   Scattered Clouds
3:55 AM 69.8 °F - 60.8 °F 73% 29.67 in 10.0 mi South 19.6 mph 23.0 mph N/A   Clear
4:15 AM 69.8 °F - 59.0 °F 68% 29.67 in 10.0 mi South 17.3 mph 23.0 mph N/A   Clear
4:35 AM 69.8 °F - 59.0 °F 68% 29.67 in 10.0 mi South 17.3 mph 25.3 mph N/A   Clear
4:55 AM 69.8 °F - 59.0 °F 68% 29.67 in 10.0 mi South 15.0 mph 23.0 mph N/A   Clear
5:15 AM 68.0 °F - 59.0 °F 73% 29.66 in 10.0 mi South 17.3 mph 21.9 mph N/A   Clear
5:35 AM 68.0 °F - 59.0 °F 73% 29.66 in 10.0 mi South 16.1 mph 21.9 mph N/A   Clear
5:55 AM 69.8 °F - 59.0 °F 68% 29.66 in 10.0 mi South 17.3 mph 25.3 mph N/A   Mostly Cloudy
6:35 AM 68.0 °F - 59.0 °F 73% 29.66 in 10.0 mi South 19.6 mph 29.9 mph N/A   Scattered Clouds
6:55 AM 69.8 °F - 60.8 °F 73% 29.66 in 10.0 mi South 18.4 mph 24.2 mph N/A   Mostly Cloudy
7:15 AM 69.8 °F - 59.0 °F 68% 29.65 in 10.0 mi South 19.6 mph 25.3 mph N/A   Overcast
7:35 AM 68.0 °F - 59.0 °F 73% 29.65 in 10.0 mi South 20.7 mph 27.6 mph N/A   Overcast
7:55 AM 69.8 °F - 59.0 °F 68% 29.65 in 10.0 mi South 21.9 mph 28.8 mph N/A   Mostly Cloudy
8:55 AM 69.8 °F - 60.8 °F 73% 29.65 in 10.0 mi South 18.4 mph 26.5 mph N/A   Mostly Cloudy
9:15 AM 69.8 °F - 60.8 °F 73% 29.65 in 10.0 mi SSW 24.2 mph 27.6 mph N/A   Mostly Cloudy
9:55 AM 71.6 °F - 60.8 °F 69% 29.64 in 10.0 mi SSW 19.6 mph 33.4 mph N/A   Overcast
10:15 AM 71.6 °F - 60.8 °F 69% 29.63 in 10.0 mi SSW 20.7 mph 24.2 mph N/A   Overcast
11:15 AM 53.6 °F - 50.0 °F 88% 29.71 in 7.0 mi WNW 20.7 mph 26.5 mph N/A   Overcast
11:35 AM 51.8 °F - 48.2 °F 88% 29.72 in 10.0 mi West 23.0 mph 28.8 mph N/A   Overcast
11:55 AM 50.0 °F - 46.4 °F 87% 29.74 in 5.0 mi WNW 21.9 mph 29.9 mph N/A   Overcast
12:15 PM 48.2 °F - 46.4 °F 93% 29.76 in 3.0 mi WNW 19.6 mph 28.8 mph N/A   Drizzle
12:35 PM 46.4 °F 38.7 °F 44.6 °F 93% 29.77 in 4.0 mi WNW 20.7 mph 27.6 mph 0.01 in   Drizzle
12:55 PM 46.4 °F 38.5 °F 44.6 °F 93% 29.78 in 4.0 mi WNW 21.9 mph 28.8 mph 0.02 in Rain Light Rain
1:15 PM 46.4 °F 38.3 °F 44.6 °F 93% 29.79 in 7.0 mi WNW 23.0 mph 27.6 mph 0.02 in Rain Rain
1:55 PM 44.6 °F 36.9 °F 42.8 °F 93% 29.81 in 10.0 mi WNW 18.4 mph 28.8 mph 0.04 in Rain Rain
2:15 PM 44.6 °F 37.2 °F 42.8 °F 93% 29.83 in 5.0 mi WNW 17.3 mph - 0.02 in Rain Light Rain
2:35 PM 44.6 °F 36.6 °F 41.0 °F 87% 29.85 in 7.0 mi WNW 19.6 mph 31.1 mph 0.05 in Rain Rain
2:55 PM 42.8 °F 32.9 °F 39.2 °F 87% 29.86 in 10.0 mi WNW 26.5 mph 31.1 mph 0.07 in Rain Light Rain
3:15 PM 42.8 °F 34.3 °F 39.2 °F 87% 29.88 in 10.0 mi WNW 19.6 mph 29.9 mph N/A Rain Light Rain
3:35 PM 42.8 °F 32.5 °F 37.4 °F 81% 29.90 in 10.0 mi NW 28.8 mph 33.4 mph N/A   Overcast
3:55 PM 42.8 °F 34.5 °F 37.4 °F 81% 29.93 in 10.0 mi NW 18.4 mph 27.6 mph N/A   Overcast
4:35 PM 42.8 °F 34.8 °F 37.4 °F 81% 29.96 in 10.0 mi NW 17.3 mph 26.5 mph N/A   Overcast
4:55 PM 42.8 °F 34.8 °F 37.4 °F 81% 29.97 in 10.0 mi NNW 17.3 mph 26.5 mph N/A   Overcast
5:15 PM 42.8 °F 35.4 °F 37.4 °F 81% 29.98 in 10.0 mi NW 15.0 mph 25.3 mph N/A   Overcast
5:35 PM 42.8 °F 35.1 °F 37.4 °F 81% 29.99 in 10.0 mi NW 16.1 mph 25.3 mph N/A   Overcast
5:55 PM 42.8 °F 34.0 °F 37.4 °F 81% 30.01 in 10.0 mi NW 20.7 mph 24.2 mph N/A   Overcast
6:15 PM 42.8 °F 33.8 °F 35.6 °F 76% 30.03 in 10.0 mi NW 21.9 mph 33.4 mph N/A   Overcast
6:35 PM 42.8 °F 34.3 °F 35.6 °F 76% 30.04 in 10.0 mi NW 19.6 mph 33.4 mph N/A   Overcast
6:55 PM 41.0 °F 30.5 °F 35.6 °F 81% 30.06 in 10.0 mi NW 26.5 mph 32.2 mph N/A   Overcast
7:15 PM 41.0 °F 31.4 °F 33.8 °F 76% 30.08 in 10.0 mi NW 21.9 mph 28.8 mph N/A   Overcast
7:35 PM 41.0 °F 31.6 °F 33.8 °F 76% 30.09 in 10.0 mi NW 20.7 mph 27.6 mph N/A   Overcast
7:55 PM 39.2 °F 29.0 °F 33.8 °F 81% 30.09 in 10.0 mi NW 21.9 mph 32.2 mph N/A   Overcast
8:15 PM 39.2 °F 28.7 °F 33.8 °F 81% 30.11 in 10.0 mi NW 23.0 mph 31.1 mph N/A   Overcast
8:35 PM 39.2 °F 29.6 °F 32.0 °F 75% 30.13 in 10.0 mi NW 19.6 mph 33.4 mph N/A   Overcast
8:55 PM 39.2 °F 30.8 °F 30.2 °F 70% 30.15 in 10.0 mi NW 15.0 mph 20.7 mph N/A   Overcast
9:15 PM 39.2 °F 28.7 °F 30.2 °F 70% 30.16 in 10.0 mi NW 23.0 mph 29.9 mph N/A   Overcast
9:35 PM 37.4 °F 26.9 °F 28.4 °F 70% 30.17 in 10.0 mi NW 20.7 mph 27.6 mph N/A   Scattered Clouds
9:55 PM 37.4 °F 28.2 °F 28.4 °F 70% 30.19 in 10.0 mi NW 16.1 mph 27.6 mph N/A   Scattered Clouds
10:15 PM 39.2 °F 30.5 °F 30.2 °F 70% 30.19 in 10.0 mi NW 16.1 mph 24.2 mph N/A   Mostly Cloudy
10:35 PM 39.2 °F 29.3 °F 30.2 °F 70% 30.19 in 10.0 mi NW 20.7 mph 27.6 mph N/A   Overcast
10:55 PM 39.2 °F 29.3 °F 28.4 °F 65% 30.20 in 10.0 mi NW 20.7 mph 31.1 mph N/A   Overcast
11:15 PM 39.2 °F 29.0 °F 28.4 °F 65% 30.21 in 10.0 mi NW 21.9 mph 28.8 mph N/A   Overcast
11:55 PM 37.4 °F 27.5 °F 28.4 °F 70% 30.23 in 10.0 mi NW 18.4 mph 27.6 mph N/A   Overcast